Simultaneous Nadir Overpasses (SNOs) Predictions

Prediction of SNOs between GOES-17 and METOP-C Satellite Orbit:

Table of predicted SNOs for the next 14.0 days since TLE Epoch: 6/7/2019
Index Date Time (GOES-17) GOES-17 Lat,Lon METOP-C Lat,Lon Distance(km) Time Diff (sec)
1 06/08/2019 06:48:11 0.02,-137.19 -0.39,-138.96 202.92 80
2 06/09/2019 06:24:53 0.03,-137.18 0.76,-133.98 365.36 80
3 06/10/2019 18:43:45 -0.03,-137.19 0.26,-138.54 154.01 80
4 06/11/2019 18:25:45 -0.03,-137.18 -0.82,-133.54 414.48 80
5 06/13/2019 06:44:47 0.03,-137.16 -0.16,-138.15 111.77 80
6 06/14/2019 06:21:27 0.03,-137.15 0.93,-133.15 456.19 80
7 06/15/2019 18:40:20 -0.03,-137.15 0.10,-137.71 64.35 80
8 06/18/2019 06:41:20 0.03,-137.10 -0.04,-137.30 23.76 80
9 06/20/2019 18:39:34 -0.04,-137.07 -0.06,-136.88 21.55 80




NCC Satellite Simultaneous Nadir Overpasses (SNOs) Prediction Service
